Radiation Dose at Monitoring Post of Fukushima Daini Nuclear Power Station
Date,Time,MP-1(microSv/h),MP-2(microSv/h),MP-3(microSv/h),MP-4(microSv/h),MP-5(microSv/h),MP-6(microSv/h),MP-7(microSv/h),Wind Direction,Wind Velocity(m/s),Rain
2020/05/09,00:00,0.180,0.165,0.279,0.253,0.260,0.142,0.085,southwest,9.6,No
2020/05/09,00:10,0.180,0.165,0.279,0.253,0.262,0.142,0.087,southwest,8.8,No
2020/05/09,00:20,0.180,0.165,0.279,0.254,0.262,0.142,0.084,southwest,8.3,No
2020/05/09,00:30,0.180,0.165,0.280,0.252,0.261,0.141,0.085,south-southwest,8.4,No
2020/05/09,00:40,0.180,0.164,0.278,0.254,0.261,0.142,0.086,south-southwest,8.7,No
2020/05/09,00:50,0.181,0.166,0.280,0.254,0.259,0.141,0.085,southwest,9.6,No
2020/05/09,01:00,0.179,0.165,0.280,0.253,0.262,0.142,0.086,southwest,9.3,No
2020/05/09,01:10,0.180,0.164,0.280,0.254,0.261,0.141,0.086,southwest,9.2,No
2020/05/09,01:20,0.179,0.164,0.282,0.252,0.262,0.142,0.086,southwest,8.7,No
2020/05/09,01:30,0.179,0.164,0.278,0.253,0.260,0.142,0.086,southwest,9.0,No
2020/05/09,01:40,0.180,0.165,0.281,0.253,0.261,0.142,0.085,southwest,8.4,No
2020/05/09,01:50,0.179,0.164,0.279,0.251,0.260,0.142,0.085,southwest,9.3,No
2020/05/09,02:00,0.179,0.164,0.280,0.253,0.260,0.143,0.085,southwest,8.5,No
2020/05/09,02:10,0.180,0.166,0.280,0.252,0.262,0.142,0.086,southwest,8.6,No
2020/05/09,02:20,0.179,0.164,0.279,0.253,0.260,0.142,0.085,southwest,6.9,No
2020/05/09,02:30,0.180,0.165,0.281,0.254,0.262,0.143,0.086,southwest,4.6,No
2020/05/09,02:40,0.181,0.164,0.279,0.253,0.262,0.142,0.086,south-southwest,3.1,No
2020/05/09,02:50,0.179,0.165,0.280,0.254,0.261,0.142,0.086,south-southwest,3.1,No
2020/05/09,03:00,0.180,0.165,0.279,0.253,0.262,0.142,0.085,south,2.9,No
2020/05/09,03:10,0.180,0.164,0.278,0.254,0.260,0.142,0.086,south,4.2,No
2020/05/09,03:20,0.179,0.164,0.280,0.253,0.263,0.142,0.086,south-southwest,5.6,No
2020/05/09,03:30,0.181,0.165,0.279,0.253,0.261,0.141,0.086,south-southwest,4.6,No
2020/05/09,03:40,0.179,0.165,0.280,0.253,0.263,0.142,0.085,south,4.7,No
2020/05/09,03:50,0.180,0.165,0.281,0.253,0.260,0.141,0.086,south-southwest,5.5,No
2020/05/09,04:00,0.180,0.165,0.279,0.254,0.261,0.141,0.086,south,5.8,No
2020/05/09,04:10,0.179,0.165,0.281,0.253,0.261,0.141,0.085,south,6.4,No
2020/05/09,04:20,0.180,0.165,0.279,0.253,0.260,0.142,0.086,south,6.4,No
2020/05/09,04:30,0.180,0.166,0.279,0.254,0.263,0.141,0.085,south-southwest,6.4,No
2020/05/09,04:40,0.181,0.165,0.280,0.253,0.260,0.142,0.086,south,5.6,No
2020/05/09,04:50,0.179,0.167,0.280,0.253,0.262,0.142,0.085,south-southwest,6.4,No
2020/05/09,05:00,0.181,0.164,0.280,0.254,0.261,0.142,0.086,south-southwest,6.5,No
2020/05/09,05:10,0.179,0.164,0.279,0.253,0.261,0.142,0.086,south-southwest,5.3,No
2020/05/09,05:20,0.179,0.165,0.279,0.253,0.262,0.142,0.085,south-southwest,6.5,No
2020/05/09,05:30,0.180,0.166,0.280,0.253,0.261,0.142,0.086,south-southwest,5.6,No
2020/05/09,05:40,0.179,0.165,0.279,0.254,0.263,0.141,0.086,south-southwest,4.8,No
2020/05/09,05:50,0.181,0.164,0.280,0.252,0.260,0.141,0.085,south-southwest,5.0,No
2020/05/09,06:00,0.179,0.165,0.279,0.253,0.262,0.142,0.086,south-southwest,5.1,No
2020/05/09,06:10,0.180,0.165,0.281,0.254,0.259,0.141,0.085,south-southwest,4.9,No
2020/05/09,06:20,0.180,0.164,0.278,0.253,0.262,0.141,0.086,south,3.8,No
2020/05/09,06:30,0.180,0.164,0.279,0.255,0.260,0.142,0.085,south,3.2,No
2020/05/09,06:40,0.179,0.165,0.278,0.252,0.262,0.143,0.085,south-southwest,4.3,No
2020/05/09,06:50,0.180,0.164,0.279,0.254,0.260,0.141,0.086,south,3.9,No
2020/05/09,07:00,0.180,0.166,0.277,0.251,0.260,0.143,0.085,south,4.3,No
2020/05/09,07:10,0.181,0.165,0.279,0.254,0.260,0.141,0.085,south-southwest,5.5,No
2020/05/09,07:20,0.180,0.165,0.277,0.252,0.262,0.142,0.086,south-southwest,5.6,No
2020/05/09,07:30,0.181,0.164,0.280,0.254,0.261,0.141,0.086,south-southwest,5.2,No
2020/05/09,07:40,0.180,0.164,0.277,0.252,0.260,0.141,0.085,south,5.1,No
2020/05/09,07:50,0.180,0.165,0.280,0.252,0.262,0.142,0.085,south,4.6,No
2020/05/09,08:00,0.179,0.165,0.279,0.254,0.260,0.141,0.086,south,4.4,No
2020/05/09,08:10,0.180,0.164,0.278,0.252,0.262,0.141,0.086,south,4.4,No
2020/05/09,08:20,0.181,0.165,0.281,0.254,0.262,0.142,0.085,south,4.2,No
2020/05/09,08:30,0.179,0.164,0.279,0.253,0.259,0.142,0.086,south,4.4,No
2020/05/09,08:40,0.179,0.164,0.276,0.250,0.263,0.141,0.086,south,3.6,No
2020/05/09,08:50,0.179,0.165,0.275,0.251,0.260,0.142,0.086,south-southeast,4.3,No
2020/05/09,09:00,0.177,0.164,0.276,0.254,0.258,0.141,0.085,south,5.4,No
2020/05/09,09:10,0.180,0.165,0.278,0.252,0.259,0.143,0.086,south-southeast,5.9,No
2020/05/09,09:20,0.181,0.166,0.281,0.251,0.262,0.142,0.086,south-southeast,5.7,No
2020/05/09,09:30,0.178,0.164,0.279,0.251,0.261,0.141,0.085,south-southeast,6.7,No
2020/05/09,09:40,0.179,0.164,0.278,0.253,0.258,0.142,0.087,south-southeast,7.5,No
2020/05/09,09:50,0.181,0.165,0.277,0.253,0.261,0.142,0.085,south-southeast,7.3,No
2020/05/09,10:00,0.180,0.165,0.281,0.251,0.263,0.142,0.086,south,6.6,No
2020/05/09,10:10,0.178,0.164,0.281,0.252,0.260,0.141,0.086,south-southeast,9.6,No
2020/05/09,10:20,0.180,0.165,0.277,0.255,0.259,0.142,0.086,south,9.0,No
2020/05/09,10:30,0.179,0.165,0.279,0.253,0.263,0.142,0.086,south-southeast,7.4,No
2020/05/09,10:40,0.179,0.165,0.282,0.252,0.262,0.142,0.086,south,6.7,No
2020/05/09,10:50,0.181,0.166,0.280,0.254,0.260,0.142,0.085,south,7.5,No
2020/05/09,11:00,0.179,0.165,0.277,0.252,0.263,0.141,0.086,south,7.1,No
2020/05/09,11:10,0.179,0.166,0.281,0.252,0.261,0.142,0.085,south-southeast,5.5,No
2020/05/09,11:20,0.182,0.166,0.281,0.254,0.258,0.142,0.086,south-southeast,7.3,No
2020/05/09,11:30,0.179,0.165,0.278,0.253,0.262,0.141,0.086,south-southeast,9.8,No
2020/05/09,11:40,0.179,0.165,0.279,0.251,0.262,0.142,0.085,south,7.9,No
2020/05/09,11:50,0.181,0.165,0.281,0.255,0.258,0.141,0.086,south,6.5,No
2020/05/09,12:00,0.178,0.163,0.280,0.253,0.263,0.141,0.085,south,7.1,No
2020/05/09,12:10,0.180,0.166,0.278,0.251,0.262,0.142,0.085,south,7.9,No
2020/05/09,12:20,0.180,0.166,0.281,0.254,0.260,0.141,0.087,south-southeast,7.7,No
2020/05/09,12:30,0.178,0.164,0.281,0.254,0.259,0.141,0.085,south-southeast,9.2,No
2020/05/09,12:40,0.179,0.166,0.278,0.253,0.263,0.142,0.086,south,9.6,No
2020/05/09,12:50,0.181,0.164,0.279,0.252,0.261,0.141,0.086,south-southeast,10.1,No
2020/05/09,13:00,0.178,0.164,0.282,0.254,0.261,0.142,0.085,south,10.4,No
2020/05/09,13:10,0.181,0.165,0.279,0.252,0.263,0.142,0.086,south,10.3,No
2020/05/09,13:20,0.179,0.166,0.278,0.253,0.261,0.141,0.086,south-southeast,9.2,No
2020/05/09,13:30,0.179,0.165,0.281,0.254,0.260,0.143,0.086,south,9.2,No
2020/05/09,13:40,0.181,0.165,0.278,0.251,0.262,0.142,0.086,south-southeast,9.2,No
2020/05/09,13:50,0.179,0.165,0.280,0.254,0.260,0.141,0.085,south,9.8,No
2020/05/09,14:00,0.180,0.166,0.281,0.252,0.262,0.142,0.086,south,9.6,No
2020/05/09,14:10,0.180,0.164,0.278,0.254,0.260,0.142,0.085,south,9.8,No
2020/05/09,14:20,0.179,0.165,0.281,0.254,0.261,0.142,0.086,south,9.3,No
2020/05/09,14:30,0.180,0.164,0.279,0.253,0.264,0.142,0.085,south,9.0,No
2020/05/09,14:40,0.179,0.165,0.280,0.254,0.259,0.142,0.086,south,8.4,No
2020/05/09,14:50,0.180,0.165,0.281,0.252,0.264,0.143,0.085,south,8.8,No
2020/05/09,15:00,0.180,0.164,0.278,0.255,0.262,0.141,0.085,south,9.0,No
2020/05/09,15:10,0.179,0.164,0.282,0.253,0.259,0.141,0.086,south,8.5,No
2020/05/09,15:20,0.180,0.164,0.279,0.253,0.261,0.142,0.085,south,8.3,No
2020/05/09,15:30,0.180,0.167,0.278,0.254,0.259,0.141,0.086,south,7.3,No
2020/05/09,15:40,0.180,0.164,0.282,0.252,0.261,0.142,0.086,south,8.2,No
2020/05/09,15:50,0.180,0.165,0.278,0.255,0.261,0.142,0.086,south,7.5,No
2020/05/09,16:00,0.179,0.166,0.281,0.253,0.259,0.142,0.086,south,8.6,No
2020/05/09,16:10,0.182,0.164,0.280,0.254,0.263,0.142,0.085,south,8.7,No
2020/05/09,16:20,0.179,0.164,0.280,0.253,0.260,0.141,0.086,south,8.2,No
2020/05/09,16:30,0.180,0.164,0.281,0.253,0.261,0.142,0.085,south,7.5,No
2020/05/09,16:40,0.179,0.165,0.279,0.255,0.261,0.142,0.086,south,8.8,No
2020/05/09,16:50,0.180,0.165,0.281,0.253,0.262,0.143,0.085,south,8.8,No
2020/05/09,17:00,0.181,0.165,0.279,0.254,0.262,0.142,0.086,south,9.5,No
2020/05/09,17:10,0.180,0.164,0.282,0.253,0.260,0.140,0.085,south,8.8,No
2020/05/09,17:20,0.181,0.166,0.278,0.254,0.263,0.143,0.086,south,6.8,No
2020/05/09,17:30,0.179,0.164,0.281,0.252,0.260,0.141,0.085,south,6.2,No
2020/05/09,17:40,0.179,0.166,0.280,0.253,0.264,0.142,0.085,south-southwest,8.6,No
2020/05/09,17:50,0.180,0.164,0.281,0.253,0.260,0.142,0.085,south-southwest,7.2,No
2020/05/09,18:00,0.181,0.165,0.280,0.254,0.263,0.142,0.085,south-southwest,7.1,No
2020/05/09,18:10,0.179,0.164,0.281,0.253,0.260,0.142,0.086,south-southwest,7.9,No
2020/05/09,18:20,0.180,0.164,0.279,0.254,0.264,0.143,0.085,south,7.0,No
2020/05/09,18:30,0.180,0.165,0.279,0.253,0.260,0.141,0.086,south,6.6,No
2020/05/09,18:40,0.179,0.166,0.281,0.255,0.262,0.141,0.085,south,6.9,No
2020/05/09,18:50,0.181,0.164,0.280,0.252,0.260,0.141,0.085,south,8.0,No
2020/05/09,19:00,0.179,0.165,0.280,0.254,0.263,0.142,0.085,south,7.6,No
2020/05/09,19:10,0.181,0.164,0.282,0.253,0.260,0.142,0.085,south,8.4,No
2020/05/09,19:20,0.180,0.166,0.282,0.255,0.263,0.141,0.086,south-southwest,8.3,No
2020/05/09,19:30,0.180,0.164,0.279,0.252,0.262,0.143,0.085,south,8.3,No
2020/05/09,19:40,0.179,0.165,0.281,0.254,0.262,0.141,0.085,south,7.7,No
2020/05/09,19:50,0.180,0.164,0.279,0.253,0.260,0.142,0.086,south,7.3,No
2020/05/09,20:00,0.180,0.165,0.280,0.255,0.262,0.140,0.085,south,7.1,No
2020/05/09,20:10,0.181,0.165,0.280,0.253,0.262,0.143,0.086,south,7.1,No
2020/05/09,20:20,0.178,0.165,0.280,0.253,0.261,0.142,0.085,south,6.7,No
2020/05/09,20:30,0.181,0.164,0.280,0.253,0.262,0.142,0.085,south,7.0,No
2020/05/09,20:40,0.179,0.165,0.280,0.254,0.261,0.143,0.085,south,7.9,No
2020/05/09,20:50,0.180,0.166,0.280,0.252,0.262,0.142,0.087,south,7.9,No
2020/05/09,21:00,0.179,0.165,0.282,0.255,0.260,0.142,0.085,south,7.7,No
2020/05/09,21:10,0.181,0.164,0.281,0.252,0.262,0.142,0.086,south,7.4,No
2020/05/09,21:20,0.179,0.166,0.280,0.255,0.261,0.142,0.085,south,7.7,No
2020/05/09,21:30,0.181,0.164,0.278,0.252,0.262,0.142,0.085,south,7.3,No
2020/05/09,21:40,0.180,0.166,0.280,0.253,0.260,0.142,0.085,south,7.1,No
2020/05/09,21:50,0.181,0.165,0.279,0.252,0.262,0.142,0.085,south,6.3,No
2020/05/09,22:00,0.181,0.166,0.281,0.255,0.261,0.141,0.086,south,6.3,Yes
2020/05/09,22:10,0.181,0.165,0.280,0.252,0.263,0.142,0.086,south,6.8,Yes
2020/05/09,22:20,0.181,0.166,0.281,0.255,0.262,0.145,0.088,south,6.8,Yes
2020/05/09,22:30,0.182,0.168,0.283,0.257,0.266,0.145,0.090,south,7.6,Yes
2020/05/09,22:40,0.184,0.168,0.283,0.257,0.263,0.146,0.089,south,7.9,Yes
2020/05/09,22:50,0.183,0.168,0.284,0.257,0.265,0.146,0.090,south,8.1,Yes
2020/05/09,23:00,0.184,0.168,0.283,0.257,0.265,0.147,0.091,south,8.4,Yes
2020/05/09,23:10,0.185,0.170,0.285,0.259,0.266,0.148,0.092,south,7.9,Yes
2020/05/09,23:20,0.185,0.170,0.284,0.256,0.266,0.148,0.092,south,7.6,Yes
2020/05/09,23:30,0.186,0.171,0.285,0.260,0.267,0.149,0.093,south,6.7,Yes
2020/05/09,23:40,0.186,0.172,0.284,0.256,0.267,0.149,0.093,south,6.8,Yes
2020/05/09,23:50,0.186,0.171,0.282,0.258,0.264,0.149,0.093,south-southwest,7.8,Yes
